User: anonymous   Login
Location: Unspecified
(0.0000°N, 0.0000°E)
Time: 19:59:22
(UTC+00:00)
Language:

FORMOSAT 3F - Orbit

View from above orbital plane
View from above orbital plane
View from above satellite
View from above satellite

Ground track
Ground track

The orbit data is extracted from the following two-line orbital elements,

1 29052U 06011F   18016.86908167 +.00000029 +00000-0 +27453-4 0  9993
2 29052 072.0338 165.0245 0038427 096.9054 263.6456 14.28739891613636
Epoch (UTC): 16 January 2018 20:51:28
Eccentricity: 0.0038427
inclination: 72.0338°
perigee height: 768 km
apogee height: 823 km
right ascension of ascending node: 165.0245°
argument of perigee: 96.9054°
revolutions per day: 14.28739891
mean anomaly at epoch: 263.6456°
orbit number at epoch: 61363

The dashed part of the orbit path shows where the satellite is in the earth's shadow,  

DLR